Location: 10 Water Well
(33.8423°N, 106.8620°W)
Time: 20:37:43
(UTC+00:00)

Daily predictions for brighter satellites

Satellite Brightness Start Highest point End
(mag) Time Altitude Azimuth Time Altitude Azimuth Time Altitude Azimuth
Cosmos 1980 Rocket 2.9 12:02:10 10° S 12:07:33 52° ESE 12:12:58 10° NNE
COSMOS 2455 2.8 12:06:49 11° SSW 12:12:39 88° ESE 12:18:43 10° NNE
IRS-1D 3.6 12:08:35 10° NNE 12:13:47 78° ESE 12:18:51 10° S
Meteor 1-21 Rocket 4.1 12:09:32 10° N 12:15:20 81° W 12:21:00 10° S
SL-8 R/B 3.6 12:14:55 58° WSW 12:15:26 62° SW 12:20:04 10° SE
Cosmos 1697 Rocket 2.8 12:18:26 40° WSW 12:19:47 48° WNW 12:25:15 10° N
IUS-17 SRM-1 3.9 12:20:53 34° SW 12:22:11 47° S 12:32:54 10° ESE
Aureole 3 3.7 12:17:49 10° N 12:23:16 80° W 12:27:40 10° S
SKYMED 2 3.7 12:21:11 10° SSE 12:25:30 76° ENE 12:29:51 10° N
Cosmos 2297 Rocket 2.1 12:23:26 18° NNW 12:27:41 63° WSW 12:33:13 10° S
USA 59 Rocket 1.4 12:32:31 16° NNW 12:32:31 16° NNW 12:33:29 10° N
COSMO-SKYMED 1 3.4 12:28:54 10° SSE 12:32:51 48° ENE 12:36:48 10° N
CZ-4 R/B 3.8 12:28:06 10° NNE 12:33:06 84° WNW 12:38:03 10° SSW
Cosmos 1570 Rocket 4.1 12:28:57 10° NNW 12:34:10 75° ENE 12:39:21 10° SSE
Cosmos 2123 Rocket 3.9 12:29:36 10° N 12:35:49 73° W 12:41:57 10° S
Cosmos 1486 Rocket 4.2 12:42:40 10° SW 12:47:46 47° WNW 12:52:52 10° N
Cosmos 1908 Rocket 3.5 12:44:45 10° S 12:49:04 89° WNW 12:53:25 10° N
Cosmos 1777 Rocket 4.0 12:44:13 10° SSW 12:49:16 57° WNW 12:54:23 10° N
Cosmos 2344 4.3 12:40:46 10° NW 12:49:34 67° WSW 13:02:02 10° SSE
Cosmos 2208 Rocket 4.3 12:45:43 10° NNW 12:51:09 76° ENE 12:56:34 10° SSE
Cosmos 2221 Rocket 4.2 12:49:09 10° N 12:53:38 62° E 12:58:05 10° SSE
Cosmos 1535 Rocket 4.5 12:47:28 10° SSW 12:53:47 67° W 13:00:09 10° N
SL-23 DEB 3.4 12:53:04 23° NW 12:54:55 72° SW 12:58:44 10° SE
Cosmos 1733 Rocket 4.4 12:55:51 18° WNW 12:55:51 18° WNW 12:58:14 10° NNW
Cosmos 2369 3.8 12:54:31 10° SSW 13:00:11 81° ESE 13:05:52 10° NNE
Cosmos 2263 Rocket 2.9 12:56:01 10° NNW 13:01:35 56° ENE 13:07:04 10° SE
SMAP 4.4 12:57:25 10° NNE 13:01:52 44° E 13:06:17 10° S
ISS -1.9 12:59:08 10° SSW 13:02:09 32° SE 13:05:10 10° ENE
Cosmos 1869 4.1 13:03:07 10° S 13:06:34 49° E 13:10:01 10° NNE
CBERS-1 4.4 13:03:18 10° NNE 13:08:25 71° ESE 13:13:30 10° S
Cosmos 773 Rocket 4.0 13:04:49 10° NNW 13:10:00 65° WSW 13:15:06 10° S
SL-16 R/B 4.0 13:07:44 10° S 13:12:51 36° ESE 13:17:58 10° NE
Cosmos 1354 Rocket 4.0 13:08:03 10° SSW 13:13:11 63° WNW 13:18:23 10° N
OAO 2 Rocket 3.7 13:10:52 13° W 13:15:24 60° SSW 13:20:33 10° ESE
Cosmos 1378 Rocket 4.5 13:11:57 10° NW 13:15:27 25° W 13:18:56 10° SW
OAO 3 Rocket 3.6 13:13:25 12° W 13:17:23 47° SSW 13:21:45 10° SE
GP-B 3.0 13:14:26 10° N 13:18:48 81° W 13:23:10 10° S
Cosmos 1605 Rocket 4.4 13:14:40 10° SSW 13:20:41 43° W 13:26:45 10° N
Helios 1A Rocket 2.8 13:18:37 10° SSE 13:21:51 65° ENE 13:25:07 10° N
MOS 1 Rocket 3.3 13:17:51 10° NNE 13:22:12 82° ESE 13:26:44 10° S
Cosmos 2227 Rocket 2.5 13:21:06 10° NNW 13:26:32 48° WSW 13:31:56 10° S
Cosmos 1812 2.4 13:30:43 10° SW 13:32:51 27° W 13:35:01 10° NNW
Cosmos 1025 Rocket 3.9 13:30:40 10° NNW 13:34:27 29° W 13:38:12 10° SSW
Cosmos 372 Rocket 4.3 13:29:53 10° S 13:34:55 74° ESE 13:40:00 10° NNE
